This is the latest recevied weather packets stored in our database for station/object N6WDO. If no packets are shown the sender has not sent any weather packets the latest 10 day(s).
| Time | Temp. | Humidity | Pressure | Rain* | Wind** | Luminosity | Snow |
|---|---|---|---|---|---|---|---|
| 1777580704 | 24.44° C | 41% | 1015.3 hPa | 0 mm | - | 730 W/m² | - |
| 1777580400 | 24.44° C | 41% | 1015.3 hPa | 0 mm | - | 730 W/m² | - |
| 1777580096 | 24.44° C | 42% | 1015.4 hPa | 0 mm | - | 732 W/m² | - |
| 1777579793 | 24.44° C | 41% | 1015.6 hPa | 0 mm | - | 735 W/m² | - |
| 1777579490 | 23.89° C | 42% | 1015.6 hPa | 0 mm | - | 736 W/m² | - |
| 1777579185 | 23.89° C | 42% | 1015.4 hPa | 0 mm | - | 736 W/m² | - |
| 1777578880 | 23.89° C | 42% | 1015.5 hPa | 0 mm | - | 737 W/m² | - |
| 1777578577 | 23.89° C | 43% | 1015.6 hPa | 0 mm | - | 737 W/m² | - |
| 1777578271 | 23.89° C | 43% | 1015.7 hPa | 0 mm | - | 736 W/m² | - |
| 1777577967 | 23.89° C | 42% | 1015.5 hPa | 0 mm | - | 737 W/m² | - |
| 1777577662 | 23.33° C | 46% | 1015.4 hPa | 0 mm | - | 735 W/m² | - |
| 1777577361 | 23.33° C | 44% | 1015.8 hPa | 0 mm | - | 734 W/m² | - |
| 1777577056 | 23.89° C | 43% | 1015.9 hPa | 0 mm | - | 731 W/m² | - |
| 1777576753 | 23.89° C | 45% | 1015.8 hPa | 0 mm | - | 727 W/m² | - |
| 1777576452 | 23.33° C | 45% | 1015.9 hPa | 0 mm | - | 727 W/m² | - |
| 1777576149 | 23.89° C | 44% | 1015.9 hPa | 0 mm | - | 723 W/m² | - |
| 1777575843 | 23.89° C | 44% | 1015.8 hPa | 0 mm | - | 720 W/m² | - |
| 1777575541 | 23.33° C | 47% | 1015.9 hPa | 0 mm | - | 715 W/m² | - |
| 1777575236 | 23.33° C | 43% | 1016.2 hPa | 0 mm | - | 711 W/m² | - |
| 1777574933 | 22.78° C | 45% | 1016 hPa | 0 mm | - | 707 W/m² | - |
| 1777574629 | 22.78° C | 46% | 1016.2 hPa | 0 mm | - | 702 W/m² | - |
| 1777574327 | 22.78° C | 45% | 1016 hPa | 0 mm | - | 697 W/m² | - |
| 1777574026 | 22.78° C | 45% | 1016.1 hPa | 0 mm | - | 691 W/m² | - |
| 1777573721 | 22.78° C | 45% | 1016.1 hPa | 0 mm | - | 685 W/m² | - |
| 1777573418 | 22.78° C | 44% | 1016.3 hPa | 0 mm | - | 677 W/m² | - |
* Rain latest hour (hover to see other rain measurements)
** Current wind speed in m/s (hover to see current wind gust speed)